Regional Weather Roundup
Issued by NWS Kansas City/Pleasant Hill, MO

Home | Current Version | Previous Version | Text Only | Print | Product List | Glossary On
Versions: 1 2 3 4 5 6 7 8 9 10 11 12 13 14 15 16 17 18 19 20 21 22 23 24 25 26 27 28 29 30 31 32 33 34 35 36 37 38 39 40 41 42 43 44 45 46 47 48 49
000
ASUS43 KEAX 281810
RWREAX

WEATHER ROUNDUP FOR EASTERN KANSAS AND NORTHWEST MISSOURI
NATIONAL WEATHER SERVICE KANSAS CITY/PLEASANT HILL MO
100 PM CDT TUE JUL 28 2015

KSZ040-057-103>105-MOZ028-029-037-043-281900-
...KANSAS CITY METROPOLITAN AREA...

CITY           SKY/WX    TMP DP  RH WIND       PRES   REMARKS
K.C. INTL      MOSUNNY   91  74  57 S15G23    29.90F HX 100
6HR MIN TEMP:  78; 6HR MAX TEMP:  91;

K.C. DOWNTOWN  SUNNY     95  73  48 S16G24    29.88F HX 104
6HR MIN TEMP:  81; 6HR MAX TEMP:  95;

LEES SUMMIT    SUNNY     92  72  51 S14G23    29.93F HX  99
6HR MIN TEMP:  79; 6HR MAX TEMP:  92;

OLATHE - IXD   SUNNY     93  71  48 S17G25    29.93S HX 100
6HR MIN TEMP:  78; 6HR MAX TEMP:  93;

OLATHE - OJC   SUNNY     90  73  57 S16       29.92S HX  98
6HR MIN TEMP:  77; 6HR MAX TEMP:  91;

LAWRENCE       SUNNY     94  73  50 S14       29.88F HX 103

$$

MOZ001>008-011>017-020>025-030>033-038>040-044>046-053-054-281900-
...NORTHERN AND CENTRAL MISSOURI...

CITY           SKY/WX    TMP DP  RH WIND       PRES   REMARKS
ST. JOSEPH     SUNNY     90  76  63 SW14G21   29.86F HX 101
6HR MIN TEMP:  78; 6HR MAX TEMP:  91;

MOSBY          CLEAR     91  70  49 S13       29.90F HX  97
WARRENSBURG    SUNNY     91  70  49 S12G18    29.93S HX  97
WHITEMAN AFB   MOSUNNY   94  72  48 SW18      29.93F HX 102
6HR MIN TEMP:  78; 6HR MAX TEMP:  94;

CLINTON        SUNNY     93  73  52 S13G18    29.96S HX 102
SEDALIA        SUNNY     94  73  50 S14       29.97S HX 103
6HR MIN TEMP:  78; 6HR MAX TEMP:  94;

WARSAW         NOT AVBL
CHILLICOTHE      N/A     92  76  59 S7        29.92F HX 104
6HR MIN TEMP:  75; 6HR MAX TEMP:  92;

KIRKSVILLE     SUNNY     92  76  59 S12       29.95F HX 104
6HR MIN TEMP:  72; 6HR MAX TEMP:  92; 6HR PCP: TRACE;


$$

MOZ041-047>049-056>058-063>065-088>090-097-281900-
...EASTERN AND SOUTHERN MISSOURI...

CITY           SKY/WX    TMP DP  RH WIND       PRES   REMARKS
ST. LOUIS INTL MOSUNNY   95  75  52 E5        29.96F HX 107
6HR MIN TEMP:  77; 6HR MAX TEMP:  96;

SPIRIT OF STL  MOSUNNY   93  77  59 CALM      29.94F HX 107
COLUMBIA       SUNNY     91  77  63 SW13      29.97S HX 104
JEFFERSON CITY MOSUNNY   93  75  55 SW8       29.95S HX 104
ROLLA          SUNNY     91  76  61 VRB7      29.99F HX 103
OSAGE BEACH    SUNNY     93  73  52 SW9       29.98F HX 102
SPRINGFIELD    MOSUNNY   91  73  55 W9        30.01F HX  99
BRANSON        MOSUNNY   91  73  55 SW6       30.04F HX 100
JOPLIN         SUNNY     93  72  50 SW13      29.97F HX 101
WEST PLAINS    SUNNY     92  73  53 VRB6      30.04F HX 100

$$

IAZ060-094-KSZ022-034>040-054-083-096-NEZ052-066-093-281900-
...KANSAS...SOUTHEAST NEBRASKA AND IOWA...

CITY           SKY/WX    TMP DP  RH WIND       PRES   REMARKS
TOPEKA         SUNNY     93  72  50 S14G22    29.86F HX 101
6HR MIN TEMP:  79; 6HR MAX TEMP:  94;

MANHATTAN      SUNNY     96  72  45 S13G22    29.83F HX 104
EMPORIA        SUNNY     97  69  40 S21       29.88F HX 103
CHANUTE        SUNNY     93  72  50 S16       29.93F HX 101
WICHITA        MOSUNNY   96  69  41 S17G25    29.87F HX 102
OMAHA          PTSUNNY   87  75  67 SE12      29.85S HX  96
LINCOLN        MOSUNNY   87  73  62 S9        29.85F HX  94
FALLS CITY     SUNNY     90  76  63 S12       29.85F HX 101
LAMONI         PTSUNNY   86  78  77 E8        29.91F HX  98
DES MOINES     CLOUDY    83  73  72 SE22G28   29.86F

$$



USA.gov is the U.S. government's official web portal to all federal, state and local government web resources and services.